Weather History for Gallup, NM

Change the Weather History Date:

Friday, June 28, 2013

  Actual Average Record
Temperature  
Mean Temperature 76 °F -  
Max Temperature 99 °F 86 °F 99 °F (2013)
Min Temperature 53 °F 46 °F 39 °F (1975)
Cooling Degree Days 10    
Growing Degree Days 26 (Base 50)    
Moisture  
Dew Point 28 °F    
Average Humidity 17    
Maximum Humidity 30    
Minimum Humidity 8    
Precipitation  
Precipitation 0.00 in - - ()
Sea Level Pressure  
Sea Level Pressure 29.77 in    
Wind  
Wind Speed 6 mph (ESE)    
Max Wind Speed 24 mph    
Max Gust Speed 36 mph    
Visibility 10 miles    
Events Rain    
Averages and records for this station are not official NWS values.
T = Trace of Precipitation, MM = Missing Value Source: NWS Daily Summary

Daily Weather History Graph

Daily Weather History Graph

Search for Another Location

Airport:

Trip Planner

Search our weather history database for the weather conditions in past years. The results will help you decide how hot, cold, wet, or windy it might be!

Date:

Astronomy

Jun. 28, 2013 Rise Set
Actual Time 6:02 AM MDT 8:34 PM MDT
Civil Twilight 5:32 AM MDT 9:04 PM MDT
Nautical Twilight 4:55 AM MDT 9:41 PM MDT
Astronomical Twilight 4:14 AM MDT 10:22 PM MDT
Moon No Moon Rise 11:59 AM MDT (6/28)
Length of Visible Light 15h 32m
Length of Day
14h 32m
Waning Gibbous, 65% of the Moon is Illuminated
Jun 28
Waning Gibbous
Jun 29
Last Quarter
Jul 8
New
Jul 15
First Quarter
Jul 22
Full

Hourly Weather History & Observations

Time (MDT) Temp. Dew Point Humidity Pressure Visibility Wind Dir Wind Speed Gust Speed Precip Events Conditions
12:53 AM 62.1 °F 19.9 °F 20% 29.73 in 10.0 mi ENE 5.8 mph - N/A   Clear
1:53 AM 62.1 °F 21.9 °F 21% 29.71 in 10.0 mi Calm Calm - N/A   Clear
2:53 AM 55.0 °F 17.1 °F 23% 29.75 in 10.0 mi Calm Calm - N/A   Clear
3:53 AM 53.1 °F 18.0 °F 25% 29.76 in 10.0 mi Calm Calm - N/A   Clear
4:53 AM 55.0 °F 19.9 °F 25% 29.73 in 10.0 mi Calm Calm - N/A   Clear
5:53 AM 55.0 °F 19.0 °F 24% 29.75 in 10.0 mi ENE 4.6 mph - N/A   Clear
6:53 AM 60.1 °F 19.9 °F 21% 29.74 in 10.0 mi Calm Calm - N/A   Clear
7:53 AM 66.0 °F 21.9 °F 19% 29.75 in 10.0 mi Calm Calm - N/A   Clear
8:53 AM 75.0 °F 25.0 °F 16% 29.73 in 10.0 mi Calm Calm - N/A   Clear
9:53 AM 84.0 °F 28.9 °F 14% 29.72 in 10.0 mi Variable 3.5 mph - N/A   Clear
10:53 AM 90.0 °F 28.9 °F 11% 29.68 in 10.0 mi Calm Calm - N/A   Clear
11:53 AM 93.9 °F 30.0 °F 10% 29.68 in 10.0 mi South 8.1 mph - N/A   Clear
12:53 PM 96.1 °F 28.0 °F 9% 29.70 in 10.0 mi Variable 4.6 mph - N/A   Clear
1:53 PM 93.9 °F 26.1 °F 9% 29.69 in 10.0 mi Calm Calm - N/A   Clear
2:53 PM 93.9 °F 26.1 °F 9% 29.71 in 10.0 mi SE 15.0 mph 26.5 mph N/A   Clear
3:53 PM 98.1 °F 28.0 °F 8% 29.68 in 10.0 mi ESE 23.0 mph 28.8 mph N/A   Clear
4:53 PM 93.9 °F 27.0 °F 9% 29.69 in 10.0 mi SE 10.4 mph - N/A   Clear
5:53 PM 93.9 °F 28.0 °F 10% 29.67 in 10.0 mi SSW 8.1 mph 18.4 mph N/A   Clear
6:53 PM 93.0 °F 27.0 °F 9% 29.63 in 10.0 mi WSW 12.7 mph - N/A   Clear
7:46 PM 87.8 °F 33.8 °F 15% 30.28 in 10.0 mi NE 21.9 mph 29.9 mph N/A   Partly Cloudy
7:53 PM 84.0 °F 39.0 °F 20% 29.74 in 9.0 mi NNE 24.2 mph 34.5 mph 0.00 in Rain Light Rain
8:00 PM 80.6 °F 42.8 °F 26% 30.30 in 10.0 mi NNE 19.6 mph 34.5 mph 0.00 in Rain Light Rain
8:17 PM 84.2 °F 35.6 °F 18% 30.29 in 10.0 mi ESE 19.6 mph 35.7 mph 0.00 in   Mostly Cloudy
8:53 PM 81.0 °F 37.0 °F 21% 29.73 in 10.0 mi East 21.9 mph 27.6 mph 0.00 in   Clear
9:53 PM 78.1 °F 39.0 °F 25% 29.69 in 10.0 mi SSE 13.8 mph 23.0 mph N/A   Clear
10:53 PM 77.0 °F 39.0 °F 25% 29.65 in 10.0 mi South 15.0 mph - N/A   Clear
11:53 PM 73.9 °F 41.0 °F 30% 29.63 in 10.0 mi SE 12.7 mph - N/A   Clear